This is the latest recevied weather packets stored in our database for station/object K0CVS. If no packets are shown the sender has not sent any weather packets the latest 10 day(s).
| Time | Temp. | Humidity | Pressure | Rain* | Wind** | Luminosity | Snow |
|---|---|---|---|---|---|---|---|
| 1778099892 | 15.56° C | 32% | 1018.6 hPa | 0 mm | - | 587 W/m² | - |
| 1778099589 | 15.56° C | 34% | 1018.6 hPa | 1.27 mm | - | 600 W/m² | - |
| 1778099286 | 16.11° C | 34% | 1018.7 hPa | 1.27 mm | - | 613 W/m² | - |
| 1778098983 | 15.56° C | 32% | 1018.7 hPa | 0 mm | - | 625 W/m² | - |
| 1778098680 | 15.56° C | 33% | 1018.6 hPa | 0 mm | - | 634 W/m² | - |
| 1778098377 | 15.56° C | 33% | 1018.7 hPa | 0 mm | - | 647 W/m² | - |
| 1778098074 | 15.56° C | 34% | 1018.5 hPa | 0 mm | - | 652 W/m² | - |
| 1778097770 | 15.56° C | 34% | 1018.9 hPa | 0 mm | - | 681 W/m² | - |
| 1778097466 | 15.56° C | 30% | 1018.8 hPa | 0 mm | - | 711 W/m² | - |
| 1778097163 | 15.56° C | 33% | 1019 hPa | 0 mm | - | 723 W/m² | - |
| 1778096860 | 15.56° C | 33% | 1018.9 hPa | 0 mm | - | 701 W/m² | - |
| 1778096556 | 15.56° C | 33% | 1018.7 hPa | 0 mm | - | 709 W/m² | - |
| 1778096255 | 15° C | 35% | 1018.9 hPa | 0 mm | - | 713 W/m² | - |
| 1778095951 | 15.56° C | 33% | 1019 hPa | 0 mm | - | 717 W/m² | - |
| 1778095647 | 15° C | 33% | 1018.9 hPa | 0 mm | - | 725 W/m² | - |
| 1778095344 | 15° C | 33% | 1018.9 hPa | 0 mm | - | 729 W/m² | - |
| 1778095041 | 15° C | 31% | 1019.1 hPa | 0 mm | - | 738 W/m² | - |
| 1778094737 | 15° C | 32% | 1019 hPa | 0 mm | - | 744 W/m² | - |
| 1778094435 | 15° C | 32% | 1019 hPa | 0 mm | - | 749 W/m² | - |
| 1778094131 | 15° C | 34% | 1019 hPa | 0 mm | - | 752 W/m² | - |
| 1778093828 | 15° C | 34% | 1019.1 hPa | 0 mm | - | 754 W/m² | - |
| 1778093525 | 15° C | 33% | 1019.1 hPa | 0 mm | - | 757 W/m² | - |
| 1778093223 | 15° C | 33% | 1019.2 hPa | 0 mm | - | 762 W/m² | - |
| 1778092920 | 14.44° C | 36% | 1019.1 hPa | 0 mm | - | 766 W/m² | - |
| 1778092616 | 14.44° C | 32% | 1019.3 hPa | 0 mm | - | 769 W/m² | - |
* Rain latest hour (hover to see other rain measurements)
** Current wind speed in m/s (hover to see current wind gust speed)